Weather in San Pedro Sula

Honduras     15°30′21″N   88°01′38″W
temp.,
°C
wind,
m/s
gust,
m/s
humid.,
%
clouds,
%
prec.,
mm/h
press.,
hPa
HPBL,
m
17 september, fri
fri1700:00+23wsw1191100 0.9 101221
03:00+22sw2291100 0.0 101242
06:00+22sw228895 0.0 101334
09:00+29sse21593 0.0 1015640
12:00+33e22445 0.0 10131566
15:00+33nne43455 0.0 10101520
18:00+26nne368150 0.0 1012311
21:00+24nw119239 0.3 101420
18 september, sat
sat1800:00+22w119328 0.4 101317
03:00+22sw22965 0.1 101241
06:00+22sw22955 0.1 101438
09:00+29se11633 0.0 1015836
12:00+32ene23473 0.2 10131802
15:00+30n556277 0.7 1011754
18:00+25nnw358121 1.2 1012233
21:00+23nw229142 0.6 101449
19 september, sun
sun1900:00+22wnw119279 1.6 101416
03:00+22wsw119472 0.4 101322
06:00+21wsw119665 0.6 101427
09:00+28se117291 0.2 1015796
12:00+32ene225060 0.4 10121741
15:00+29n5566100 0.5 1010770
18:00+25n3684100 1.3 1012265
21:00+23nnw239699 2.9 101468
20 september, mon
mon2000:00+23nnw119499 3.4 101316
03:00+22wnw009682 1.4 101212
06:00+22sw119669 1.8 101326
09:00+27ese117166 0.0 1015768
12:00+32ne335178 0.2 10121762
15:00+28n446882 0.6 1010913
18:00+25n258434 1.1 1012154
21:00+23nnw229463 0.1 101428
21 september, tue
tue2100:00+22wnw119554 0.2 101313
03:00+22wsw119569 0.1 101213
06:00+21sw119618 0.1 101428
09:00+28ese116518 0.2 1015897
12:00+31n235718 1.3 10131488
15:00+27n358014 2.9 1012774
18:00+24n259010 4.0 1013104
21:00+23nw229415 0.4 101533